Location: Montr�al
(45.5000°N, 73.5830°W)
Time: 04:44:29
(UTC-04:00)

Cosmos 1151 Rocket - Visible Passes

Search period start: 21 June 2018 00:00
Search period end: 01 July 2018 00:00
Orbit: 592 x 616 km, 82.5° (Epoch: 20 June)

Date Brightness Start Highest point End Pass type
(mag) Time Alt. Az. Time Alt. Az. Time Alt. Az.
21 Jun 3.6 00:57:05 10° NNW 01:01:07 42° W 01:01:44 39° WSW visible
21 Jun 4.3 23:32:30 10° NNE 23:36:16 29° ENE 23:37:32 25° ESE visible
22 Jun 4.4 01:10:10 10° NNW 01:13:43 26° W 01:14:22 25° WSW visible
22 Jun 3.5 23:44:57 10° N 23:49:06 46° ENE 23:50:10 38° ESE visible
23 Jun 5.0 01:23:36 10° NW 01:26:15 16° W 01:27:00 16° W visible
23 Jun 2.9 23:57:34 10° N 00:01:52 78° E 00:02:49 53° SSE visible
24 Jun 5.2 22:34:27 10° NE 22:36:33 13° ENE 22:38:37 10° E visible
25 Jun 3.1 00:10:20 10° NNW 00:14:35 63° W 00:15:29 49° SSW visible
25 Jun 4.7 22:46:17 10° NNE 22:49:31 20° ENE 22:51:18 16° ESE visible
26 Jun 3.9 00:23:16 10° NNW 00:27:13 37° W 00:28:09 33° WSW visible
26 Jun 4.1 22:58:33 10° N 23:02:24 32° ENE 23:04:00 24° ESE visible
27 Jun 4.6 00:36:25 10° NW 00:39:48 23° W 00:40:50 21° WSW visible
27 Jun 3.3 23:11:02 10° N 23:15:14 52° ENE 23:16:42 35° SE visible
28 Jun 5.2 00:49:58 10° NW 00:52:19 15° W 00:53:32 13° WSW visible
28 Jun 2.9 23:23:41 10° N 23:27:59 87° ENE 23:29:24 42° S visible
29 Jun 5.1 22:00:19 10° NNE 22:02:43 15° ENE 22:05:07 10° ESE visible
29 Jun 3.4 23:36:29 10° NNW 23:40:40 56° W 23:42:08 36° SSW visible
30 Jun 4.5 22:12:16 10° NNE 22:15:40 23° ENE 22:18:01 15° ESE visible
30 Jun 4.2 23:49:27 10° NNW 23:53:18 33° W 23:54:52 25° SW visible
